Simultaneous Nadir Overpasses (SNOs) Predictions

Prediction of SNOs between NOAA-19 and METOP-C Satellite Orbit:

Table of predicted SNOs for the next 14.0 days since TLE Epoch: 2/28/2020
Index Date (NOAA-19) Time (NOAA-19) Lat,Lon (NOAA-19) SZA (NOAA-19 ) Date (METOP-C) Time (METOP-C) Lat,Lon (METOP-C) SZA (METOP-C ) Distance(km) Time Diff (sec)
1 03/09/2020 05:28:24 79.82, 118.75 84.58 03/09/2020 05:29:31 79.84, 118.71 84.61 1.90 67
2 03/09/2020 06:19:30 -79.83, -74.14 95.43 03/09/2020 06:20:13 -79.82, -74.15 95.44 1.64 43
3 03/09/2020 07:10:25 79.83, 93.15 84.56 03/09/2020 07:10:53 79.82, 93.26 84.57 2.29 28
4 03/09/2020 08:01:30 -79.81, -99.44 95.46 03/09/2020 08:01:35 -79.80, -99.60 95.48 3.38 5
5 03/09/2020 08:52:25 79.81, 67.85 84.53 03/09/2020 08:52:15 79.81, 67.81 84.52 0.73 10
6 03/09/2020 09:43:30 -79.80,-124.74 95.50 03/09/2020 09:42:56 -79.82,-124.76 95.48 2.99 34
7 03/09/2020 10:34:26 79.82, 42.25 84.50 03/09/2020 10:33:37 79.80, 42.36 84.48 3.18 49




NCC Satellite Simultaneous Nadir Overpasses (SNOs) Prediction Service
